TimeMDT,TemperatureF,Dew PointF,Humidity,Sea Level PressureIn,VisibilityMPH,Wind Direction,Wind SpeedMPH,Gust SpeedMPH,PrecipitationIn,Events,Conditions,WindDirDegrees,DateUTC
12:53 AM,35.1,30.0,82,29.88,10.0,SW,3.5,-,N/A,,Mostly Cloudy,220,2012-05-07 06:53:00
1:53 AM,35.1,30.9,85,29.88,10.0,SSW,9.2,-,N/A,,Overcast,200,2012-05-07 07:53:00
2:19 AM,33.8,33.8,100,30.22,10.0,SSW,15.0,-,N/A,,Overcast,210,2012-05-07 08:19:00
2:28 AM,33.8,33.8,100,30.22,10.0,SSW,17.3,-,N/A,,Overcast,210,2012-05-07 08:28:00
2:35 AM,33.8,33.8,100,30.22,1.5,SW,18.4,-,0.00,Snow,Light Snow,220,2012-05-07 08:35:00
2:43 AM,32.0,32.0,100,30.22,0.2,SSW,16.1,24.2,0.00,Fog-Snow,Light Snow,210,2012-05-07 08:43:00
2:53 AM,30.9,30.9,100,29.91,0.2,South,12.7,-,0.00,Fog-Snow,Snow,190,2012-05-07 08:53:00
3:00 AM,30.2,30.2,100,30.21,0.8,South,10.4,-,0.01,Snow,Light Snow,180,2012-05-07 09:00:00
3:07 AM,30.2,30.2,100,30.22,1.2,South,8.1,-,0.01,Snow,Light Snow,190,2012-05-07 09:07:00
3:20 AM,32.0,30.2,93,30.22,2.0,South,6.9,-,0.02,Snow,Light Snow,180,2012-05-07 09:20:00
3:27 AM,32.0,30.2,93,30.23,5.0,SW,6.9,-,0.02,Snow,Light Snow,230,2012-05-07 09:27:00
3:30 AM,30.2,30.2,100,30.23,1.8,SW,9.2,-,0.02,Snow,Light Snow,230,2012-05-07 09:30:00
3:38 AM,30.2,30.2,100,30.23,0.2,SW,11.5,-,0.02,Fog,Light Freezing Fog,220,2012-05-07 09:38:00
3:46 AM,30.2,30.2,100,30.23,0.2,SW,12.7,-,0.02,Fog,Light Freezing Fog,220,2012-05-07 09:46:00
3:53 AM,30.9,30.9,100,29.98,0.5,SSW,9.2,-,0.02,Fog,Light Freezing Fog,210,2012-05-07 09:53:00
4:09 AM,30.2,30.2,100,30.23,1.0,SW,11.5,-,N/A,,Mist,220,2012-05-07 10:09:00
4:17 AM,30.2,30.2,100,30.23,0.5,SSW,6.9,-,N/A,Fog,Light Freezing Fog,210,2012-05-07 10:17:00
4:24 AM,30.2,30.2,100,30.23,0.2,South,3.5,-,N/A,Fog,Light Freezing Fog,190,2012-05-07 10:24:00
4:36 AM,30.2,30.2,100,30.23,0.5,SW,5.8,-,N/A,Fog,Light Freezing Fog,220,2012-05-07 10:36:00
4:46 AM,30.2,30.2,100,30.24,0.2,SW,5.8,-,N/A,Fog,Light Freezing Fog,230,2012-05-07 10:46:00
4:53 AM,30.0,30.0,100,30.00,0.5,SW,5.8,-,N/A,Fog,Light Freezing Fog,230,2012-05-07 10:53:00
5:03 AM,30.2,30.2,100,30.23,1.2,WSW,5.8,-,0.00,Snow,Light Snow,240,2012-05-07 11:03:00
5:10 AM,30.2,30.2,100,30.23,3.0,SW,6.9,-,0.00,Snow,Light Snow,230,2012-05-07 11:10:00
5:53 AM,28.9,28.9,100,29.99,9.0,SW,12.7,-,0.00,Snow,Light Snow,220,2012-05-07 11:53:00
6:53 AM,28.9,28.0,96,30.00,3.0,SW,16.1,-,0.00,,Overcast,220,2012-05-07 12:53:00
6:56 AM,28.4,28.4,100,30.24,1.5,SW,13.8,-,N/A,,Overcast,220,2012-05-07 12:56:00
7:05 AM,28.4,28.4,100,30.24,0.5,SW,16.1,21.9,N/A,Fog,Light Freezing Fog,220,2012-05-07 13:05:00
7:17 AM,28.4,28.4,100,30.24,2.5,SW,15.0,-,N/A,,Overcast,220,2012-05-07 13:17:00
7:25 AM,28.4,28.4,100,30.24,9.0,SW,13.8,-,N/A,,Overcast,220,2012-05-07 13:25:00
7:41 AM,28.4,28.4,100,30.25,1.8,SW,15.0,-,0.00,Snow,Light Snow,220,2012-05-07 13:41:00
7:53 AM,28.0,28.0,100,30.03,1.0,SW,13.8,-,0.00,Snow,Light Snow,230,2012-05-07 13:53:00
8:01 AM,28.4,28.4,100,30.26,0.5,SW,12.7,-,0.01,Fog-Snow,Snow,220,2012-05-07 14:01:00
8:35 AM,28.4,28.4,100,30.26,0.2,SW,12.7,23.0,0.03,Fog-Snow,Heavy Snow,220,2012-05-07 14:35:00
8:53 AM,28.0,27.0,96,30.06,0.5,SW,10.4,-,0.05,Fog-Snow,Snow,230,2012-05-07 14:53:00
9:13 AM,28.4,28.4,100,30.27,1.2,SW,9.2,-,0.01,Snow,Light Snow,220,2012-05-07 15:13:00
9:33 AM,28.4,28.4,100,30.26,3.0,SW,15.0,-,0.01,Snow,Light Snow,220,2012-05-07 15:33:00
9:53 AM,28.0,27.0,96,30.06,10.0,SW,16.1,21.9,0.01,,Overcast,220,2012-05-07 15:53:00
10:06 AM,28.4,28.4,100,30.27,1.5,SW,15.0,-,N/A,,Overcast,220,2012-05-07 16:06:00
10:18 AM,28.4,28.4,100,30.27,0.8,SW,15.0,-,N/A,,Mist,220,2012-05-07 16:18:00
10:31 AM,28.4,28.4,100,30.28,1.0,SW,15.0,-,0.00,Snow,Light Snow,220,2012-05-07 16:31:00
10:39 AM,28.4,28.4,100,30.28,0.5,SW,18.4,-,0.00,Fog-Snow,Snow,220,2012-05-07 16:39:00
10:51 AM,28.4,28.4,100,30.28,1.0,SSW,18.4,-,0.00,Snow,Light Snow,210,2012-05-07 16:51:00
10:53 AM,28.0,28.0,100,30.08,1.0,SW,16.1,-,0.00,Snow,Light Snow,220,2012-05-07 16:53:00
11:10 AM,28.4,28.4,100,30.28,0.5,SW,12.7,-,0.00,Fog-Snow,Snow,220,2012-05-07 17:10:00
11:53 AM,30.9,30.0,96,30.04,2.0,SW,12.7,-,0.01,,Overcast,220,2012-05-07 17:53:00
12:01 PM,30.2,28.4,93,30.26,5.0,SW,10.4,-,N/A,,Overcast,220,2012-05-07 18:01:00
12:21 PM,30.2,30.2,100,30.26,10.0,SW,12.7,-,N/A,,Overcast,220,2012-05-07 18:21:00
12:53 PM,30.9,28.9,92,30.04,10.0,SW,16.1,-,N/A,,Overcast,220,2012-05-07 18:53:00
1:05 PM,30.2,28.4,93,30.24,10.0,SW,20.7,28.8,N/A,,Overcast,220,2012-05-07 19:05:00
1:53 PM,30.9,28.9,92,30.04,10.0,SSW,17.3,-,0.00,,Overcast,210,2012-05-07 19:53:00
2:11 PM,30.2,30.2,100,30.25,2.5,SW,16.1,20.7,0.00,Snow,Light Snow,220,2012-05-07 20:11:00
2:21 PM,30.2,28.4,93,30.25,5.0,SW,15.0,-,0.00,Snow,Light Snow,220,2012-05-07 20:21:00
2:53 PM,30.9,28.9,92,30.07,10.0,SW,13.8,-,0.00,,Overcast,230,2012-05-07 20:53:00
3:07 PM,30.2,28.4,93,30.25,1.8,SSW,16.1,-,0.00,Snow,Light Snow,210,2012-05-07 21:07:00
3:53 PM,28.9,28.0,96,30.08,1.0,SSW,16.1,-,0.01,Snow,Light Snow,210,2012-05-07 21:53:00
4:14 PM,28.4,28.4,100,30.24,1.0,SSW,12.7,-,0.01,Snow,Light Snow,200,2012-05-07 22:14:00
4:23 PM,28.4,28.4,100,30.24,0.8,SSW,15.0,-,0.01,Snow,Light Snow,210,2012-05-07 22:23:00
4:35 PM,28.4,28.4,100,30.24,1.0,SSW,13.8,-,0.02,Snow,Light Snow,210,2012-05-07 22:35:00
4:53 PM,28.9,28.0,96,30.07,1.8,SSW,15.0,-,0.02,Snow,Light Snow,210,2012-05-07 22:53:00
4:58 PM,28.4,28.4,100,30.24,2.0,SSW,16.1,-,0.00,Snow,Light Snow,210,2012-05-07 22:58:00
5:16 PM,28.4,28.4,100,30.24,4.0,SSW,11.5,-,0.00,Snow,Light Snow,200,2012-05-07 23:16:00
5:53 PM,30.0,27.0,88,30.08,10.0,South,6.9,-,0.00,,Overcast,190,2012-05-07 23:53:00
6:00 PM,30.2,26.6,86,30.24,10.0,SSW,3.5,-,N/A,,Overcast,200,2012-05-08 00:00:00
6:53 PM,30.0,25.0,82,30.09,10.0,Calm,Calm,-,N/A,,Overcast,0,2012-05-08 00:53:00
7:53 PM,30.0,26.1,85,30.11,10.0,SW,3.5,-,N/A,,Overcast,230,2012-05-08 01:53:00
8:53 PM,30.0,27.0,88,30.12,10.0,SW,3.5,-,N/A,,Mostly Cloudy,220,2012-05-08 02:53:00
9:53 PM,28.9,27.0,92,30.13,10.0,Calm,Calm,-,N/A,,Overcast,0,2012-05-08 03:53:00
10:53 PM,28.0,26.1,92,30.14,10.0,Calm,Calm,-,N/A,,Clear,0,2012-05-08 04:53:00
11:53 PM,25.0,24.1,96,30.14,10.0,ESE,3.5,-,N/A,,Partly Cloudy,110,2012-05-08 05:53:00